This is the latest recevied weather packets stored in our database for station/object KC0AFB. If no packets are shown the sender has not sent any weather packets the latest 10 day(s).
| Time | Temp. | Humidity | Pressure | Rain* | Wind** | Luminosity | Snow |
|---|---|---|---|---|---|---|---|
| 1777898572 | 5° C | 67% | 1006.5 hPa | 0 mm | - | 67 W/m² | - |
| 1777898269 | 5.56° C | 66% | 1006.5 hPa | 0 mm | - | 65 W/m² | - |
| 1777897966 | 5.56° C | 65% | 1006.3 hPa | 0 mm | - | 45 W/m² | - |
| 1777897662 | 5.56° C | 65% | 1006.1 hPa | 0 mm | - | 43 W/m² | - |
| 1777897358 | 5.56° C | 64% | 1005.7 hPa | 0 mm | - | 43 W/m² | - |
| 1777897054 | 5.56° C | 64% | 1005.8 hPa | 0 mm | - | 33 W/m² | - |
| 1777896751 | 5.56° C | 64% | 1005.6 hPa | 0 mm | - | 30 W/m² | - |
| 1777896449 | 5.56° C | 63% | 1005.6 hPa | 0 mm | - | 29 W/m² | - |
| 1777896146 | 5.56° C | 63% | 1005.5 hPa | 0 mm | - | 25 W/m² | - |
| 1777895844 | 5.56° C | 62% | 1005.2 hPa | 0 mm | - | 20 W/m² | - |
| 1777895541 | 6.11° C | 62% | 1005.3 hPa | 0 mm | - | 18 W/m² | - |
| 1777895238 | 6.11° C | 62% | 1005.5 hPa | 0 mm | - | 10 W/m² | - |
| 1777894936 | 6.11° C | 61% | 1005.5 hPa | 0 mm | - | 9 W/m² | - |
| 1777894633 | 6.11° C | 61% | 1005.2 hPa | 0 mm | - | 5 W/m² | - |
| 1777894330 | 6.11° C | 60% | 1005.1 hPa | 0 mm | - | 3 W/m² | - |
| 1777894027 | 6.11° C | 60% | 1004.9 hPa | 0 mm | - | 2 W/m² | - |
| 1777893723 | 6.11° C | 60% | 1004.8 hPa | 0 mm | - | 1 W/m² | - |
| 1777893420 | 6.67° C | 60% | 1005 hPa | 0 mm | - | 0 W/m² | - |
| 1777893116 | 6.67° C | 59% | 1004.7 hPa | 0 mm | - | 0 W/m² | - |
| 1777892813 | 6.67° C | 58% | 1004.7 hPa | 0 mm | - | 0 W/m² | - |
| 1777892509 | 6.67° C | 57% | 1004.8 hPa | 0 mm | - | 0 W/m² | - |
| 1777892205 | 6.67° C | 57% | 1004.8 hPa | 0 mm | - | 0 W/m² | - |
| 1777891902 | 7.22° C | 57% | 1004.5 hPa | 0 mm | - | 0 W/m² | - |
| 1777891599 | 7.22° C | 57% | 1004.7 hPa | 0 mm | - | 0 W/m² | - |
| 1777891295 | 7.22° C | 56% | 1004.8 hPa | 0 mm | - | 0 W/m² | - |
* Rain latest hour (hover to see other rain measurements)
** Current wind speed in m/s (hover to see current wind gust speed)